Regional Weather Roundup
Issued by NWS

Home | Current Version | Previous Version | Text Only | Print | Product List | Glossary Off
Versions: 1 2 3 4 5 6 7 8 9 10 11 12 13 14 15 16 17 18 19 20 21 22 23 24 25 26 27 28 29 30 31 32 33 34 35 36 37 38 39 40 41 42 43 44 45 46 47 48 49 50

000
ASUS43 KIND 201709
RWRIN

WEATHER ROUNDUP FOR INDIANA
NATIONAL WEATHER SERVICE INDIANAPOLIS IN
100 PM EDT WED SEP 20 2017

NOTE: "FAIR" INDICATES FEW OR NO CLOUDS BELOW 12,000 FEET WITH NO
SIGNIFICANT WEATHER AND/OR OBSTRUCTIONS TO VISIBILITY.

* - STATION DOES NOT REPORT WEATHER SUCH AS PRECIPITATION OR FOG.

+ - STATION NOT QUALITY CONTROLLED BY THE NATIONAL WEATHER SERVICE.
    USE DATA WITH CAUTION...ESPECIALLY DEWPOINT AND RELATIVE
    HUMIDITY OBSERVATIONS.

INZ001>003-010>013-019-020-201800-
NORTHWEST INDIANA

CITY           SKY/WX    TMP DP  RH WIND       PRES   REMARKS
GARY /AIRPORT/ MOSUNNY   84  68  58 SE7       29.93S
KNOX *+        SUNNY     82  70  65 S8        29.95F
LA PORTE +     SUNNY     81  70  68 S8        29.96S
MICHIGAN CITY+ SUNNY     82  68  61 S7        29.95S
MONTICELLO +   SUNNY     83  70  65 S6        29.96S
RENSSELAER +   SUNNY     82  64  54 S6        29.95S
VALPARAISO     SUNNY     85  71  63 S9        29.95F

$$

LMZ046-743>745-201800-
SOUTHERN LAKE MICHIGAN

STATION/POSITION TIME  TEMP    WIND        PRES    WAVE
                       AIR SEA DIR/SP/G            HT
                 (UTC) (F)     (DEG/KT/KT) (MB)    (FT)
BURNS HARBOR     1640   82     180/ 10/ 15 1013.9S
MICHIGAN CITY    1640   79     140/ 12/ 14   N/A
5NW MICH CITY    1700   76 69  170/  8/ 10   N/A     1

$$

INZ004-005-014>016-021>024-201800-
NORTH CENTRAL INDIANA

CITY           SKY/WX    TMP DP  RH WIND       PRES   REMARKS
ELKHART        SUNNY     77  68  73 S9        29.98F
GOSHEN         SUNNY     78  68  71 SE8       29.98F
LOGANSPORT +   MOSUNNY   82  68  61 S12       29.98F
PERU/GRISSOM   MOSUNNY   84  72  68 S8        29.97F
SOUTH BEND     SUNNY     79  70  74 SE10      29.97F
WARSAW +       SUNNY     77  70  78 CALM      29.99F

$$

INZ006>009-017-018-025>027-201800-
NORTHEAST INDIANA

CITY           SKY/WX    TMP DP  RH WIND       PRES   REMARKS
AUBURN +       MOSUNNY   72  70  94 CALM      30.02F FOG
FORT WAYNE     MOSUNNY   81  70  69 VRB6      30.01F
HUNTINGTON +   MOSUNNY   81  68  64 S5        29.99F
KENDALLVILLE + CLOUDY    73  73  99 SE3       30.02S FOG

$$

INZ028-029-035-036-043>045-051>053-201800-
WEST CENTRAL INDIANA

CITY           SKY/WX    TMP DP  RH WIND       PRES   REMARKS
CRAWFORDSVL +  PTSUNNY   82  68  61 SW10      29.98
GREENCASTLE +  SUNNY     84  68  58 SW6       29.99F
LAFAYETTE      SUNNY     85  70  60 S7        29.95F
TERRE HAUTE    MOSUNNY   86  69  56 SW14      29.97F

$$

INZ030>032-037>040-046>048-054>057-064-065-201800-
CENTRAL INDIANA

CITY           SKY/WX    TMP DP  RH WIND       PRES   REMARKS
ANDERSON       MOSUNNY   82  70  65 S12       30.02
CP ATTERBURY + SUNNY     84  70  61 S6        30.01F
COLUMBUS       SUNNY     82  68  61 S9        30.02F
FISHERS *+     SUNNY     82  73  74 S8        30.00F
FRANKFORT +    CLOUDY    89  73  59 SW6       30.00F HX  96
GREENWOOD *+   SUNNY     86  74  67 S6        30.01F
INDIANAPOLIS   MOSUNNY   84  71  65 S9        29.99F
-EAGLE CREEK   SUNNY     83  69  62 S8        29.99F
KOKOMO +       SUNNY     83  73  72 S10       30.00F
MT COMFORT *+    N/A    N/A N/A N/A MISG        N/A
SHELBYVILLE    SUNNY     84  69  60 SW10      30.01F
ZIONSVILLE +   SUNNY     81  71  71 S8        30.00F

$$

INZ033-034-041-042-049-050-058-059-201800-
EAST CENTRAL INDIANA

CITY           SKY/WX    TMP DP  RH WIND       PRES   REMARKS
MUNCIE         MOSUNNY   83  69  62 S8        30.01F
RICHMOND +     PTSUNNY   81  66  61 SW6       30.05F

$$

INZ060-061-067>069-081>083-085>088-201800-
SOUTHWEST INDIANA

CITY           SKY/WX    TMP DP  RH WIND       PRES   REMARKS
EVANSVILLE     MOSUNNY   85  72  65 VRB7      30.00F
HUNTINGBURG +    N/A    N/A N/A N/A MISG        N/A
WASHINGTON +   PTSUNNY   87  68  52 SW8       29.98F

$$

INZ062-063-066-070>080-084-089>092-201800-
SOUTH CENTRAL AND SOUTHEAST INDIANA

CITY           SKY/WX    TMP DP  RH WIND       PRES   REMARKS
BEDFORD +      SUNNY     84  70  61 SW9       30.00F
BLOOMINGTON    MOSUNNY   86  68  54 S13       30.00F
MADISON *+     MOSUNNY   81  70  69 SE5       30.05F
NORTH VERNON + MOSUNNY   82  68  61 S7        30.03F
SEYMOUR +      SUNNY     84  70  61 S6        30.01F

$$





USA.gov is the U.S. government's official web portal to all federal, state and local government web resources and services.